Time,TemperatureF,DewpointF,PressureIn,WindDirection,WindDirectionDegrees,WindSpeedMPH,WindSpeedGustMPH,Humidity,HourlyPrecipIn,Conditions,Clouds,dailyrainin,SoftwareType,DateUTC
2013-04-16 00:00:00,76.7,71.5,30.05,ENE,60,0.0,2.0,84,0.00,CLR,,0.00,WeatherDisplay:10.37,2013-04-16 04:00:00,
2013-04-16 00:10:00,76.4,71.6,30.04,NE,56,1.0,3.0,85,0.00,,,0.00,WeatherDisplay:10.37,2013-04-16 04:10:00,
2013-04-16 00:20:00,76.2,71.4,30.04,ENE,71,0.0,3.0,85,0.00,,,0.00,WeatherDisplay:10.37,2013-04-16 04:20:00,
2013-04-16 00:30:00,76.0,71.2,30.04,East,80,1.0,3.0,85,0.00,,,0.00,WeatherDisplay:10.37,2013-04-16 04:30:00,
2013-04-16 00:40:00,76.0,71.5,30.04,East,88,1.0,3.0,86,0.00,,,0.00,WeatherDisplay:10.37,2013-04-16 04:40:00,
2013-04-16 00:50:00,75.9,71.4,30.04,East,98,0.0,2.0,86,0.00,,,0.00,WeatherDisplay:10.37,2013-04-16 04:50:00,
2013-04-16 01:00:00,75.8,71.7,30.03,East,98,0.0,2.0,87,0.00,,,0.00,WeatherDisplay:10.37,2013-04-16 05:00:00,
2013-04-16 01:10:00,75.7,71.5,30.03,East,98,0.0,1.0,87,0.00,,,0.00,WeatherDisplay:10.37,2013-04-16 05:10:00,
2013-04-16 01:20:00,75.6,71.4,30.03,East,98,0.0,0.0,87,0.00,,,0.00,WeatherDisplay:10.37,2013-04-16 05:20:00,
2013-04-16 01:30:00,75.4,71.6,30.03,East,98,0.0,0.0,88,0.00,,,0.00,WeatherDisplay:10.37,2013-04-16 05:30:00,
2013-04-16 01:40:00,75.2,71.4,30.03,East,98,0.0,1.0,88,0.00,,,0.00,WeatherDisplay:10.37,2013-04-16 05:40:00,
2013-04-16 01:50:00,75.0,71.2,30.02,East,98,0.0,0.0,88,0.00,,,0.00,WeatherDisplay:10.37,2013-04-16 05:50:00,
2013-04-16 02:10:00,74.9,71.8,30.01,East,98,0.0,1.0,90,0.00,,,0.00,WeatherDisplay:10.37,2013-04-16 06:10:00,
2013-04-16 02:20:00,74.9,71.8,30.01,East,98,0.0,1.0,90,0.00,,,0.00,WeatherDisplay:10.37,2013-04-16 06:20:00,
2013-04-16 02:30:00,74.8,71.7,30.01,East,98,0.0,0.0,90,0.00,,,0.00,WeatherDisplay:10.37,2013-04-16 06:30:00,
2013-04-16 02:40:00,74.7,71.6,30.01,East,98,0.0,0.0,90,0.00,,,0.00,WeatherDisplay:10.37,2013-04-16 06:40:00,
2013-04-16 02:50:00,74.5,71.4,30.01,East,98,0.0,0.0,90,0.00,,,0.00,WeatherDisplay:10.37,2013-04-16 06:50:00,
2013-04-16 03:00:00,74.3,71.5,30.01,East,98,0.0,0.0,91,0.00,,,0.00,WeatherDisplay:10.37,2013-04-16 07:00:00,
2013-04-16 03:10:00,74.1,71.3,30.00,East,98,0.0,0.0,91,0.00,,,0.00,WeatherDisplay:10.37,2013-04-16 07:10:00,
2013-04-16 03:20:00,74.0,70.9,30.00,East,98,0.0,0.0,90,0.00,,,0.00,WeatherDisplay:10.37,2013-04-16 07:20:00,
2013-04-16 03:30:00,73.8,71.0,30.00,East,98,0.0,0.0,91,0.00,,,0.00,WeatherDisplay:10.37,2013-04-16 07:30:00,
2013-04-16 03:40:00,73.7,70.9,30.00,East,98,0.0,0.0,91,0.00,,,0.00,WeatherDisplay:10.37,2013-04-16 07:40:00,
2013-04-16 03:50:00,73.5,70.7,30.00,East,98,0.0,0.0,91,0.00,,,0.00,WeatherDisplay:10.37,2013-04-16 07:50:00,
2013-04-16 04:00:00,73.5,71.0,30.00,East,98,0.0,0.0,92,0.00,,,0.00,WeatherDisplay:10.37,2013-04-16 08:00:00,
2013-04-16 04:10:00,73.5,71.4,30.00,East,98,0.0,2.0,93,0.00,,,0.00,WeatherDisplay:10.37,2013-04-16 08:10:00,
2013-04-16 04:20:00,73.6,71.4,30.00,East,98,0.0,0.0,93,0.00,,,0.00,WeatherDisplay:10.37,2013-04-16 08:20:00,
2013-04-16 04:30:00,73.7,71.5,30.00,East,98,0.0,1.0,93,0.00,,,0.00,WeatherDisplay:10.37,2013-04-16 08:30:00,
2013-04-16 04:40:00,73.8,72.0,30.00,East,98,0.0,0.0,94,0.00,,,0.00,WeatherDisplay:10.37,2013-04-16 08:40:00,
2013-04-16 04:50:00,73.8,72.0,30.00,East,98,0.0,0.0,94,0.00,,,0.00,WeatherDisplay:10.37,2013-04-16 08:50:00,
2013-04-16 05:00:00,73.7,71.9,30.01,East,85,2.0,6.0,94,0.00,,,0.00,WeatherDisplay:10.37,2013-04-16 09:00:00,
2013-04-16 05:10:00,73.7,71.9,30.01,East,86,1.0,7.0,94,0.00,,,0.00,WeatherDisplay:10.37,2013-04-16 09:10:00,
2013-04-16 05:20:00,73.8,72.0,30.01,East,93,3.0,7.0,94,0.00,,,0.00,WeatherDisplay:10.37,2013-04-16 09:20:00,
2013-04-16 05:30:00,73.6,71.4,30.01,ENE,73,2.0,5.0,93,0.00,,,0.00,WeatherDisplay:10.37,2013-04-16 09:30:00,
2013-04-16 05:40:00,73.5,71.4,30.01,East,81,1.0,6.0,93,0.00,,,0.00,WeatherDisplay:10.37,2013-04-16 09:40:00,
2013-04-16 05:50:00,73.5,71.4,30.02,East,79,2.0,5.0,93,0.00,,,0.00,WeatherDisplay:10.37,2013-04-16 09:50:00,
2013-04-16 06:00:00,73.4,71.3,30.02,East,82,2.0,5.0,93,0.00,,,0.00,WeatherDisplay:10.37,2013-04-16 10:00:00,
2013-04-16 06:10:00,73.2,70.7,30.03,East,97,3.0,10.0,92,0.00,,,0.00,WeatherDisplay:10.37,2013-04-16 10:10:00,
2013-04-16 06:20:00,72.8,70.7,30.03,ENE,77,2.0,8.0,93,0.00,,,0.00,WeatherDisplay:10.37,2013-04-16 10:20:00,
2013-04-16 06:30:00,72.6,70.2,30.03,East,83,3.0,6.0,92,0.00,,,0.00,WeatherDisplay:10.37,2013-04-16 10:30:00,
2013-04-16 06:50:00,72.2,70.1,30.04,East,85,3.0,8.0,93,0.00,,,0.00,WeatherDisplay:10.37,2013-04-16 10:50:00,
2013-04-16 07:00:00,72.1,70.0,30.05,ENE,78,2.0,8.0,93,0.00,,,0.00,WeatherDisplay:10.37,2013-04-16 11:00:00,
2013-04-16 07:10:00,72.2,70.4,30.05,NE,54,2.0,7.0,94,0.00,,,0.00,WeatherDisplay:10.37,2013-04-16 11:10:00,
2013-04-16 07:20:00,72.2,70.4,30.05,NE,50,3.0,10.0,94,0.00,,,0.00,WeatherDisplay:10.37,2013-04-16 11:20:00,
2013-04-16 07:30:00,72.1,70.3,30.06,NE,46,2.0,9.0,94,0.00,,,0.00,WeatherDisplay:10.37,2013-04-16 11:30:00,
2013-04-16 07:40:00,72.1,70.3,30.06,ENE,57,1.0,8.0,94,0.00,,,0.00,WeatherDisplay:10.37,2013-04-16 11:40:00,
2013-04-16 07:50:00,72.3,70.5,30.07,NE,50,2.0,10.0,94,0.00,,,0.00,WeatherDisplay:10.37,2013-04-16 11:50:00,
2013-04-16 08:00:00,72.6,70.8,30.07,ENE,59,2.0,7.0,94,0.00,,,0.00,WeatherDisplay:10.37,2013-04-16 12:00:00,
2013-04-16 08:10:00,73.0,71.2,30.07,ENE,63,5.0,9.0,94,0.00,,,0.00,WeatherDisplay:10.37,2013-04-16 12:10:00,
2013-04-16 08:20:00,73.5,71.4,30.07,East,85,2.0,8.0,93,0.00,,,0.00,WeatherDisplay:10.37,2013-04-16 12:20:00,
2013-04-16 08:30:00,74.2,72.0,30.08,ENE,75,5.0,9.0,93,0.00,,,0.00,WeatherDisplay:10.37,2013-04-16 12:30:00,
2013-04-16 08:40:00,74.7,71.9,30.08,ENE,74,3.0,9.0,91,0.00,,,0.00,WeatherDisplay:10.37,2013-04-16 12:40:00,
2013-04-16 08:50:00,75.1,72.0,30.08,East,87,5.0,12.0,90,0.00,,,0.00,WeatherDisplay:10.37,2013-04-16 12:50:00,
2013-04-16 09:00:00,75.6,72.1,30.09,ENE,73,6.0,10.0,89,0.00,,,0.00,WeatherDisplay:10.37,2013-04-16 13:00:00,
2013-04-16 09:10:00,76.2,72.7,30.09,East,92,5.0,10.0,89,0.00,,,0.00,WeatherDisplay:10.37,2013-04-16 13:10:00,
2013-04-16 09:20:00,76.4,72.3,30.08,East,83,8.0,12.0,87,0.00,,,0.00,WeatherDisplay:10.37,2013-04-16 13:20:00,
2013-04-16 09:30:00,76.7,72.5,30.08,East,81,7.0,12.0,87,0.00,,,0.00,WeatherDisplay:10.37,2013-04-16 13:30:00,
2013-04-16 09:40:00,77.1,73.0,30.08,East,83,6.0,10.0,87,0.00,,,0.00,WeatherDisplay:10.37,2013-04-16 13:40:00,
2013-04-16 09:50:00,77.8,73.0,30.08,East,86,5.0,8.0,85,0.00,,,0.00,WeatherDisplay:10.37,2013-04-16 13:50:00,
2013-04-16 10:00:00,78.0,72.8,30.08,ENE,73,3.0,10.0,84,0.00,,,0.00,WeatherDisplay:10.37,2013-04-16 14:00:00,
2013-04-16 10:10:00,78.3,73.1,30.08,NE,49,2.0,9.0,84,0.00,CLR,,0.00,WeatherDisplay:10.37,2013-04-16 14:10:00,
2013-04-16 10:20:00,78.9,73.7,30.08,NE,55,5.0,9.0,84,0.00,CLR,,0.00,WeatherDisplay:10.37,2013-04-16 14:20:00,
2013-04-16 10:30:00,79.4,74.1,30.08,NE,45,5.0,9.0,84,0.00,CLR,,0.00,WeatherDisplay:10.37,2013-04-16 14:30:00,
2013-04-16 10:40:00,80.3,73.6,30.08,NE,51,5.0,9.0,80,0.00,CLR,,0.00,WeatherDisplay:10.37,2013-04-16 14:40:00,
2013-04-16 10:50:00,82.0,73.2,30.09,ENE,73,6.0,9.0,75,0.00,CLR,,0.00,WeatherDisplay:10.37,2013-04-16 14:50:00,
2013-04-16 11:00:00,82.9,73.3,30.09,East,88,6.0,10.0,73,0.00,CLR,,0.00,WeatherDisplay:10.37,2013-04-16 15:00:00,
2013-04-16 11:10:00,83.7,72.9,30.09,ESE,113,5.0,9.0,70,0.00,CLR,,0.00,WeatherDisplay:10.37,2013-04-16 15:10:00,
2013-04-16 11:20:00,84.8,73.9,30.09,East,96,5.0,9.0,70,0.00,CLR,,0.00,WeatherDisplay:10.37,2013-04-16 15:20:00,
2013-04-16 11:30:00,85.0,72.8,30.09,East,99,3.0,10.0,67,0.00,CLR,,0.00,WeatherDisplay:10.37,2013-04-16 15:30:00,
2013-04-16 11:40:00,85.3,73.9,30.09,East,92,3.0,9.0,69,0.00,CLR,,0.00,WeatherDisplay:10.37,2013-04-16 15:40:00,
2013-04-16 11:50:00,84.5,73.2,30.09,ENE,72,2.0,7.0,69,0.00,CLR,,0.00,WeatherDisplay:10.37,2013-04-16 15:50:00,
2013-04-16 12:00:00,85.8,74.0,30.09,ESE,102,2.0,8.0,68,0.00,CLR,,0.00,WeatherDisplay:10.37,2013-04-16 16:00:00,
2013-04-16 12:10:00,86.8,73.6,30.09,SE,132,3.0,8.0,65,0.00,CLR,,0.00,WeatherDisplay:10.37,2013-04-16 16:10:00,
2013-04-16 12:20:00,87.1,73.5,30.09,ESE,117,5.0,8.0,64,0.00,CLR,,0.00,WeatherDisplay:10.37,2013-04-16 16:20:00,
2013-04-16 12:30:00,87.2,73.1,30.09,SE,124,2.0,8.0,63,0.00,CLR,,0.00,WeatherDisplay:10.37,2013-04-16 16:30:00,
2013-04-16 12:40:00,88.4,73.3,30.08,SE,127,5.0,9.0,61,0.00,CLR,,0.00,WeatherDisplay:10.37,2013-04-16 16:40:00,
2013-04-16 12:50:00,88.6,72.9,30.08,SE,132,2.0,9.0,60,0.00,CLR,,0.00,WeatherDisplay:10.37,2013-04-16 16:50:00,
2013-04-16 13:00:00,88.8,72.1,30.08,ESE,114,3.0,8.0,58,0.00,CLR,,0.00,WeatherDisplay:10.37,2013-04-16 17:00:00,
2013-04-16 13:10:00,88.6,72.5,30.08,SE,134,3.0,9.0,59,0.00,CLR,,0.00,WeatherDisplay:10.37,2013-04-16 17:10:00,
2013-04-16 13:20:00,88.8,71.6,30.07,SE,135,2.0,7.0,57,0.00,CLR,,0.00,WeatherDisplay:10.37,2013-04-16 17:20:00,
2013-04-16 13:30:00,88.9,71.2,30.07,SSE,155,1.0,6.0,56,0.00,CLR,,0.00,WeatherDisplay:10.37,2013-04-16 17:30:00,
2013-04-16 13:40:00,89.7,71.9,30.07,South,174,2.0,6.0,56,0.00,CLR,,0.00,WeatherDisplay:10.37,2013-04-16 17:40:00,
2013-04-16 13:50:00,89.6,71.8,30.07,SE,144,1.0,7.0,56,0.00,CLR,,0.00,WeatherDisplay:10.37,2013-04-16 17:50:00,
2013-04-16 14:00:00,90.0,73.2,30.06,SE,144,2.0,6.0,58,0.00,CLR,,0.00,WeatherDisplay:10.37,2013-04-16 18:00:00,
2013-04-16 14:10:00,90.7,72.3,30.06,SE,144,3.0,6.0,55,0.00,CLR,,0.00,WeatherDisplay:10.37,2013-04-16 18:10:00,
2013-04-16 14:20:00,90.5,71.6,30.05,SSE,149,3.0,6.0,54,0.00,CLR,,0.00,WeatherDisplay:10.37,2013-04-16 18:20:00,
2013-04-16 14:30:00,91.1,71.1,30.05,SE,144,1.0,6.0,52,0.00,CLR,,0.00,WeatherDisplay:10.37,2013-04-16 18:30:00,
2013-04-16 14:40:00,90.7,71.8,30.05,SSE,156,1.0,6.0,54,0.00,CLR,,0.00,WeatherDisplay:10.37,2013-04-16 18:40:00,
2013-04-16 14:50:00,91.5,71.3,30.04,South,175,2.0,5.0,52,0.00,CLR,,0.00,WeatherDisplay:10.37,2013-04-16 18:50:00,
2013-04-16 15:00:00,91.6,72.6,30.04,South,172,2.0,6.0,54,0.00,CLR,,0.00,WeatherDisplay:10.37,2013-04-16 19:00:00,
2013-04-16 15:10:00,91.9,72.3,30.03,SSE,163,0.0,6.0,53,0.00,CLR,,0.00,WeatherDisplay:10.37,2013-04-16 19:10:00,
2013-04-16 15:20:00,89.9,74.1,30.03,WNW,295,6.0,16.0,60,0.00,CLR,,0.00,WeatherDisplay:10.37,2013-04-16 19:20:00,
2013-04-16 15:30:00,88.4,74.2,30.03,WNW,293,9.0,12.0,63,0.00,CLR,,0.00,WeatherDisplay:10.37,2013-04-16 19:30:00,
2013-04-16 15:40:00,88.5,74.3,30.03,WNW,288,7.0,12.0,63,0.00,CLR,,0.00,WeatherDisplay:10.37,2013-04-16 19:40:00,
2013-04-16 15:50:00,87.8,73.2,30.03,WNW,284,8.0,13.0,62,0.00,CLR,,0.00,WeatherDisplay:10.37,2013-04-16 19:50:00,
2013-04-16 16:00:00,87.7,73.1,30.02,WNW,289,8.0,12.0,62,0.00,CLR,,0.00,WeatherDisplay:10.37,2013-04-16 20:00:00,
2013-04-16 16:10:00,88.2,74.4,30.02,West,266,8.0,12.0,64,0.00,CLR,,0.00,WeatherDisplay:10.37,2013-04-16 20:10:00,
2013-04-16 16:20:00,88.1,74.4,30.02,WNW,284,5.0,12.0,64,0.00,CLR,,0.00,WeatherDisplay:10.37,2013-04-16 20:20:00,
2013-04-16 16:30:00,89.0,73.8,30.02,WNW,289,7.0,10.0,61,0.00,CLR,,0.00,WeatherDisplay:10.37,2013-04-16 20:30:00,
2013-04-16 16:40:00,88.2,72.6,30.01,WNW,287,6.0,12.0,60,0.00,CLR,,0.00,WeatherDisplay:10.37,2013-04-16 20:40:00,
2013-04-16 16:50:00,88.1,73.4,30.01,West,279,8.0,12.0,62,0.00,CLR,,0.00,WeatherDisplay:10.37,2013-04-16 20:50:00,
2013-04-16 17:00:00,88.7,73.0,30.01,West,269,6.0,9.0,60,0.00,CLR,,0.00,WeatherDisplay:10.37,2013-04-16 21:00:00,
2013-04-16 17:10:00,88.6,73.4,30.00,West,263,7.0,9.0,61,0.00,CLR,,0.00,WeatherDisplay:10.37,2013-04-16 21:10:00,
2013-04-16 17:20:00,87.7,72.6,30.00,WNW,284,6.0,9.0,61,0.00,CLR,,0.00,WeatherDisplay:10.37,2013-04-16 21:20:00,
2013-04-16 17:30:00,87.8,72.7,30.01,West,276,6.0,9.0,61,0.00,CLR,,0.00,WeatherDisplay:10.37,2013-04-16 21:30:00,
2013-04-16 17:40:00,87.8,73.1,30.01,NW,305,5.0,10.0,62,0.00,CLR,,0.00,WeatherDisplay:10.37,2013-04-16 21:40:00,
2013-04-16 17:50:00,87.4,72.3,30.02,NW,305,7.0,10.0,61,0.00,CLR,,0.00,WeatherDisplay:10.37,2013-04-16 21:50:00,
2013-04-16 18:00:00,86.6,72.5,30.02,NW,310,5.0,12.0,63,0.00,CLR,,0.00,WeatherDisplay:10.37,2013-04-16 22:00:00,
2013-04-16 18:10:00,85.6,72.4,30.02,WNW,294,5.0,10.0,65,0.00,CLR,,0.00,WeatherDisplay:10.37,2013-04-16 22:10:00,
2013-04-16 18:20:00,85.2,73.0,30.02,NNE,13,1.0,7.0,67,0.00,CLR,,0.00,WeatherDisplay:10.37,2013-04-16 22:20:00,
2013-04-16 18:30:00,85.5,72.9,30.02,East,99,8.0,16.0,66,0.00,CLR,,0.00,WeatherDisplay:10.37,2013-04-16 22:30:00,
2013-04-16 18:40:00,85.6,72.9,30.02,East,81,7.0,18.0,66,0.00,CLR,,0.00,WeatherDisplay:10.37,2013-04-16 22:40:00,
2013-04-16 18:50:00,85.2,72.6,30.02,ENE,75,7.0,16.0,66,0.00,CLR,,0.00,WeatherDisplay:10.37,2013-04-16 22:50:00,
2013-04-16 19:00:00,85.0,72.8,30.02,East,82,7.0,14.0,67,0.00,CLR,,0.00,WeatherDisplay:10.37,2013-04-16 23:00:00,
2013-04-16 19:10:00,84.9,73.2,30.02,East,83,6.0,12.0,68,0.00,CLR,,0.00,WeatherDisplay:10.37,2013-04-16 23:10:00,
2013-04-16 19:20:00,84.7,72.9,30.03,ENE,76,8.0,18.0,68,0.00,CLR,,0.00,WeatherDisplay:10.37,2013-04-16 23:20:00,
2013-04-16 19:30:00,84.2,72.9,30.03,East,87,8.0,18.0,69,0.00,CLR,,0.00,WeatherDisplay:10.37,2013-04-16 23:30:00,
2013-04-16 19:40:00,83.8,72.5,30.04,East,100,7.0,17.0,69,0.00,CLR,,0.00,WeatherDisplay:10.37,2013-04-16 23:40:00,
2013-04-16 19:50:00,83.5,72.7,30.05,ENE,78,8.0,18.0,70,0.00,CLR,,0.00,WeatherDisplay:10.37,2013-04-16 23:50:00,
2013-04-16 20:00:00,83.0,72.6,30.05,ENE,63,13.0,21.0,71,0.00,CLR,,0.00,WeatherDisplay:10.37,2013-04-17 00:00:00,
2013-04-16 20:10:00,82.6,71.8,30.05,ENE,78,9.0,18.0,70,0.00,CLR,,0.00,WeatherDisplay:10.37,2013-04-17 00:10:00,
2013-04-16 20:20:00,82.3,71.5,30.06,East,93,8.0,17.0,70,0.00,CLR,,0.00,WeatherDisplay:10.37,2013-04-17 00:20:00,
2013-04-16 20:30:00,82.0,71.2,30.06,East,79,9.0,20.0,70,0.00,CLR,,0.00,WeatherDisplay:10.37,2013-04-17 00:30:00,
2013-04-16 20:40:00,81.8,71.5,30.06,East,90,7.0,18.0,71,0.00,CLR,,0.00,WeatherDisplay:10.37,2013-04-17 00:40:00,
2013-04-16 20:50:00,81.5,70.8,30.07,East,88,10.0,16.0,70,0.00,CLR,,0.00,WeatherDisplay:10.37,2013-04-17 00:50:00,
2013-04-16 21:10:00,81.0,69.9,30.08,ENE,77,9.0,15.0,69,0.00,CLR,,0.00,WeatherDisplay:10.37,2013-04-17 01:10:00,
2013-04-16 21:20:00,80.7,70.0,30.08,East,90,10.0,20.0,70,0.00,CLR,,0.00,WeatherDisplay:10.37,2013-04-17 01:20:00,
2013-04-16 21:30:00,80.5,69.8,30.08,East,93,6.0,16.0,70,0.00,CLR,,0.00,WeatherDisplay:10.37,2013-04-17 01:30:00,
2013-04-16 21:40:00,80.3,69.6,30.08,East,89,6.0,18.0,70,0.00,CLR,,0.00,WeatherDisplay:10.37,2013-04-17 01:40:00,
2013-04-16 21:50:00,80.1,69.4,30.09,East,96,7.0,17.0,70,0.00,CLR,,0.00,WeatherDisplay:10.37,2013-04-17 01:50:00,
2013-04-16 22:00:00,79.9,69.7,30.09,East,85,9.0,15.0,71,0.00,CLR,,0.00,WeatherDisplay:10.37,2013-04-17 02:00:00,
2013-04-16 22:10:00,79.7,69.9,30.09,East,93,6.0,16.0,72,0.00,CLR,,0.00,WeatherDisplay:10.37,2013-04-17 02:10:00,
2013-04-16 22:20:00,79.6,69.8,30.10,East,87,7.0,17.0,72,0.00,CLR,,0.00,WeatherDisplay:10.37,2013-04-17 02:20:00,
2013-04-16 22:30:00,79.5,69.7,30.09,East,83,12.0,16.0,72,0.00,CLR,,0.00,WeatherDisplay:10.37,2013-04-17 02:30:00,
2013-04-16 22:40:00,79.3,69.5,30.10,East,98,5.0,15.0,72,0.00,CLR,,0.00,WeatherDisplay:10.37,2013-04-17 02:40:00,
2013-04-16 22:50:00,79.1,69.3,30.10,East,87,8.0,13.0,72,0.00,CLR,,0.00,WeatherDisplay:10.37,2013-04-17 02:50:00,
2013-04-16 23:00:00,79.0,69.2,30.11,East,90,7.0,15.0,72,0.00,CLR,,0.00,WeatherDisplay:10.37,2013-04-17 03:00:00,
2013-04-16 23:10:00,78.9,69.5,30.11,East,90,2.0,13.0,73,0.00,CLR,,0.00,WeatherDisplay:10.37,2013-04-17 03:10:00,
2013-04-16 23:20:00,78.7,69.8,30.11,East,95,6.0,14.0,74,0.00,CLR,,0.00,WeatherDisplay:10.37,2013-04-17 03:20:00,
2013-04-16 23:30:00,78.5,69.9,30.11,East,79,7.0,17.0,75,0.00,CLR,,0.00,WeatherDisplay:10.37,2013-04-17 03:30:00,
2013-04-16 23:40:00,78.2,69.7,30.11,East,81,5.0,15.0,75,0.00,CLR,,0.00,WeatherDisplay:10.37,2013-04-17 03:40:00,
2013-04-16 23:50:00,78.2,70.0,30.11,East,91,7.0,12.0,76,0.00,CLR,,0.00,WeatherDisplay:10.37,2013-04-17 03:50:00,